Regional Weather Roundup
Issued by NWS Raleigh/Durham, NC

Home | Current Version | Previous Version | Text Only | Print | Product List | Glossary On
Versions: 1 2 3 4 5 6 7 8 9 10 11 12 13 14 15 16 17 18 19 20 21 22 23 24 25 26 27 28 29 30 31 32 33 34 35 36 37 38 39 40 41 42 43 44 45 46 47 48 49 50
000
ASUS42 KRAH 291810
RWRRAH
NORTH CAROLINA WEATHER ROUNDUP
NATIONAL WEATHER SERVICE RALEIGH NC
200 PM EDT WED JUL 29 2015

NOTE: "FAIR" INDICATES FEW OR NO CLOUDS BELOW 12,000 FEET WITH NO
SIGNIFICANT WEATHER AND/OR OBSTRUCTIONS TO VISIBILITY.

NCZ001-053-055-056-065-067-291900-
WESTERN NORTH CAROLINA

CITY           SKY/WX    TMP DP  RH WIND       PRES   REMARKS
ASHEVILLE      PTSUNNY   87  65  47 MISG      30.07F
JEFFERSON      RAIN      74  71  91 SW3       30.16S
MORGANTON      PTSUNNY   84  70  62 CALM      30.08F
HICKORY        PTSUNNY   85  71  63 VRB3      30.03F
RUTHERFORDTON  PTSUNNY   88  72  58 CALM      30.03F
MOUNT AIRY     PTSUNNY   85  74  70 CALM      30.06S
BOONE          PTSUNNY   77  67  71 S5        30.15F
$$

NCZ021-022-025-041-071-084-088-291900-
CENTRAL NORTH CAROLINA

CITY           SKY/WX    TMP DP  RH WIND       PRES   REMARKS
CHARLOTTE      PTSUNNY   89  70  53 S5        30.01F
GREENSBORO     PTSUNNY   86  70  58 VRB3      30.01F
WINSTON-SALEM  MOSUNNY   86  72  62 VRB3      30.03F
RALEIGH-DURHAM PTSUNNY   87  70  56 VRB6      30.02F
FORT BRAGG     SUNNY     90  64  41 CALM      29.99F
FAYETTEVILLE   SUNNY     90  65  43 VRB5      29.99F
BURLINGTON     PTSUNNY   86  72  62 S5        30.02F
LAURINBURG     SUNNY     94  63  35 VRB3      29.99F HX  95
$$

NCZ011-015-027-028-043-044-047-080-103-291900-
NORTHEASTERN NORTH CAROLINA

CITY           SKY/WX    TMP DP  RH WIND       PRES   REMARKS
ROCKY MT-WILSO PTSUNNY   90  69  50 VRB3      30.01F
GREENVILLE     PTSUNNY   90  70  51 CALM      30.02S HX  95
WASHINGTON     MOSUNNY   87  71  58 E6        30.01S
ELIZABETH CITY SUNNY     87  68  52 SE8       30.02F
MANTEO         SUNNY     84  70  63 SE8       30.03S
CAPE HATTERAS  MOSUNNY   88  71  57 SE14      30.02R
$$

NCZ078-087-090-091-093-098-101-291900-
SOUTHEASTERN NORTH CAROLINA

CITY           SKY/WX    TMP DP  RH WIND       PRES   REMARKS
LUMBERTON      SUNNY     94  64  37 E8        29.98F HX  95
GOLDSBORO      NOT AVBL
KINSTON        MOSUNNY   90  70  51 N5        30.01S HX  95
KENANSVILLE    SUNNY     87  68  52 CALM      30.01F
NEW BERN       SUNNY     90  67  46 E7        30.01F
CHERRY POINT   SUNNY     88  73  61 NE13      30.01S HX  95
BEAUFORT       SUNNY     86  72  62 E7        30.00S
JACKSONVILLE   SUNNY     89  72  56 VRB3      29.98F HX  96
WILMINGTON     SUNNY     88  66  48 E10       29.99F
$$




USA.gov is the U.S. government's official web portal to all federal, state and local government web resources and services.